| Date | Time | Temp. (oF) | Dew Point (oF) | Rel. Hum. (%) | Press. (in.) | Wind Dir. | Wind Speed (mph) | Hourly Rainfall (in.) |
|
|---|---|---|---|---|---|---|---|---|---|
| 1 | 03/16 | 00:00 | 43 | 41 | 96 | 29.87 | ENE | 6 | 0.00 |
| 2 | 03/15 | 23:00 | 44 | 42 | 94 | 29.86 | NE | 10 | 0.00 |
| 3 | 03/15 | 22:00 | 44 | 43 | 99 | 29.84 | N | 0 | 0.01 |
| 4 | 03/15 | 21:00 | 44 | 43 | 99 | 29.81 | NNE | 0 | 0.01 |
| 5 | 03/15 | 20:00 | 45 | 44 | 98 | 29.79 | N | 0 | 0.00 |
| 6 | 03/15 | 19:00 | 45 | 44 | 97 | 29.76 | NNW | 0 | 0.02 |
| 7 | 03/15 | 18:00 | 45 | 43 | 95 | 29.73 | N | 0 | 0.01 |
| 8 | 03/15 | 17:00 | 46 | 43 | 90 | 29.71 | NNE | 0 | 0.01 |
| 9 | 03/15 | 16:00 | 46 | 42 | 87 | 29.68 | NNW | 8 | 0.00 |
| 10 | 03/15 | 15:00 | 47 | 41 | 82 | 29.66 | NNE | 10 | 0.00 |
| 11 | 03/15 | 14:00 | 47 | 43 | 86 | 29.66 | NNW | 0 | 0.00 |
| 12 | 03/15 | 13:00 | 46 | 42 | 86 | 29.65 | NNE | 0 | 0.00 |
| 13 | 03/15 | 12:00 | 46 | 42 | 88 | 29.64 | NNE | 8 | 0.00 |
| 14 | miss | miss | miss | miss | miss | miss | miss | miss | |
| 15 | 03/15 | 10:00 | 45 | 42 | 90 | 29.64 | N | 10 | 0.00 |
| 16 | 03/15 | 09:00 | 44 | 41 | 92 | 29.62 | NNW | 10 | 0.00 |
| 17 | 03/15 | 08:00 | 43 | 41 | 95 | 29.61 | N | 7 | 0.00 |
| 18 | 03/15 | 07:00 | 44 | 41 | 91 | 29.60 | NNW | 5 | 0.00 |
| 19 | 03/15 | 06:00 | 43 | 41 | 95 | 29.58 | N | 6 | 0.00 |
| 20 | 03/15 | 05:00 | 43 | 41 | 95 | 29.58 | NNE | 5 | 0.01 |
| 21 | 03/15 | 04:00 | 44 | 43 | 98 | 29.57 | N | 8 | 0.00 |
| 22 | 03/15 | 03:00 | 44 | 43 | 99 | 29.56 | N | 6 | 0.00 |
| 23 | 03/15 | 02:00 | 44 | 43 | 99 | 29.59 | NNW | 0 | 0.02 |
| 24 | 03/15 | 01:00 | 45 | 44 | 97 | 29.60 | NW | 0 | 0.06 |